Hlavní strana
METAR-TAF:

METAR-TAF

Letiště :

Brunswick, Georgie, Spojené státy americké

zeměpisná šířka: 31-15N, zeměpisná délka: 081-28W, výška: 8 m

Aktuální stav počasí

Zpráva byla vytvořena před 27 minutami, v 17:15 UTC
Severní vítr 7 kt
Teplota 11°C
Vlhkost vzduchu 100%
Tlak 1014 hPa
Viditelnost: 4.8 km
Zataženo ve výšce 400 ft
slabé mrholení, kouřmo

METAR: KBQK 151715Z AUTO 35007KT 3SM -DZ BR OVC004 11/11 A2995 RMK AO2 T01100107

Čas: 12:42 (17:42 UTC)


TAF: chybějící

Stav a předpovědi počasí z více než 4 000 letišť (zprávy METAR a TAF).

Červené a žluté tečky na mapě představují dostupné meteorologické stanice.

Když kurzor umístíte na tečku, zobrazí se název stanice.

Pak kliknutím zobrazíte stav a předpověď počasí.

Chcete-li změnit mapu, kliknutím na zelené tlačítko se znaménkem +mapu přiblížíte, kliknutím na zelené tlačítko se znaménkem – mapu oddálíte a kliknutím na zelené šipky přejdete na sousední mapy.


METAR-TAF: